| time (UTC) | temp C | wind direction | speed KPH | gust KPH | rain 1hr cm | rain 24hr cm | rain mn cm | humidity % | barometer mb |
| 20260506132517 | 20 | 225 | 0.0 | 3.2 | 0.00 | 0.00 | 0.00 | 82 | 1016.5 |
| 20260506132017 | 20 | 248 | 0.0 | 3.2 | 0.00 | 0.00 | 0.00 | 83 | 1016.5 |
| 20260506131537 | 20 | 180 | 0.0 | 1.6 | 0.00 | 0.00 | 0.00 | 83 | 1016.4 |
| 20260506131017 | 20 | 180 | 0.0 | 1.6 | 0.00 | 0.00 | 0.00 | 83 | 1016.4 |
| 20260506130517 | 20 | 180 | 0.0 | 1.6 | 0.00 | 0.00 | 0.00 | 84 | 1016.3 |
| 20260506130017 | 20 | 180 | 0.0 | 1.6 | 0.00 | 0.00 | 0.00 | 84 | 1016.3 |
| 20260506125517 | 19 | 135 | 0.0 | 3.2 | 0.00 | 0.00 | 0.00 | 84 | 1016.3 |
| 20260506125017 | 19 | 135 | 0.0 | 1.6 | 0.00 | 0.00 | 0.00 | 84 | 1016.2 |
| 20260506124517 | 19 | 135 | 0.0 | 1.6 | 0.00 | 0.00 | 0.00 | 85 | 1016.2 |
| 20260506124017 | 19 | 295 | 0.0 | 0.0 | 0.00 | 0.00 | 0.00 | 84 | 1016.2 |
| 20260506123537 | 19 | 295 | 0.0 | 0.0 | 0.00 | 0.00 | 0.00 | 85 | 1016.0 |
| 20260506123017 | 18 | 295 | 0.0 | 0.0 | 0.00 | 0.00 | 0.00 | 85 | 1016.2 |
| 20260506122537 | 18 | 295 | 0.0 | 0.0 | 0.00 | 0.00 | 0.00 | 85 | 1016.2 |
| 20260506122017 | 18 | 295 | 0.0 | 0.0 | 0.00 | 0.00 | 0.00 | 85 | 1016.1 |
| 20260506121517 | 18 | 295 | 0.0 | 0.0 | 0.00 | 0.00 | 0.00 | 85 | 1015.9 |
| 20260506121016 | 18 | 295 | 0.0 | 0.0 | 0.00 | 0.00 | 0.00 | 85 | 1015.9 |
| 20260506120517 | 18 | 295 | 0.0 | 0.0 | 0.00 | 0.00 | 0.00 | 85 | 1015.9 |
| 20260506120017 | 18 | 295 | 0.0 | 0.0 | 0.00 | 0.00 | 0.00 | 85 | 1016.0 |
| 20260506115517 | 18 | 295 | 0.0 | 0.0 | 0.00 | 0.00 | 0.00 | 85 | 1016.0 |
| 20260506115017 | 18 | 295 | 0.0 | 0.0 | 0.00 | 0.00 | 0.00 | 85 | 1015.9 |
| 20260506114537 | 18 | 295 | 0.0 | 0.0 | 0.00 | 0.00 | 0.00 | 85 | 1015.9 |
| 20260506114057 | 18 | 295 | 0.0 | 0.0 | 0.00 | 0.00 | 0.00 | 85 | 1015.6 |
| 20260506113538 | 18 | 295 | 0.0 | 0.0 | 0.00 | 0.00 | 0.00 | 85 | 1015.6 |
| 20260506113017 | 18 | 295 | 0.0 | 0.0 | 0.00 | 0.00 | 0.00 | 85 | 1015.6 |
| 20260506112517 | 18 | 295 | 0.0 | 0.0 | 0.00 | 0.00 | 0.00 | 85 | 1015.5 |
| 20260506112017 | 18 | 295 | 0.0 | 0.0 | 0.00 | 0.00 | 0.00 | 85 | 1015.3 |
| 20260506111557 | 17 | 295 | 0.0 | 0.0 | 0.00 | 0.00 | 0.00 | 85 | 1015.1 |
| 20260506111037 | 17 | 293 | 0.0 | 1.6 | 0.00 | 0.00 | 0.00 | 86 | 1015.1 |
| 20260506110537 | 17 | 68 | 0.0 | 1.6 | 0.00 | 0.00 | 0.00 | 85 | 1015.0 |
| 20260506110017 | 17 | 61 | 0.0 | 0.0 | 0.00 | 0.00 | 0.00 | 84 | 1015.0 |
| 20260506105517 | 17 | 61 | 0.0 | 0.0 | 0.00 | 0.00 | 0.00 | 84 | 1015.1 |
| 20260506105017 | 17 | 61 | 0.0 | 0.0 | 0.00 | 0.00 | 0.00 | 84 | 1015.1 |
| 20260506104516 | 17 | 61 | 0.0 | 0.0 | 0.00 | 0.00 | 0.00 | 84 | 1014.8 |
| 20260506104017 | 17 | 61 | 0.0 | 0.0 | 0.00 | 0.00 | 0.00 | 84 | 1014.9 |
| 20260506103516 | 17 | 61 | 0.0 | 0.0 | 0.00 | 0.00 | 0.00 | 84 | 1014.8 |
| 20260506103037 | 17 | 68 | 0.0 | 1.6 | 0.00 | 0.00 | 0.00 | 84 | 1014.8 |
| 20260506102517 | 17 | 68 | 0.0 | 1.6 | 0.00 | 0.00 | 0.00 | 83 | 1014.7 |
| 20260506102016 | 17 | 68 | 0.0 | 1.6 | 0.00 | 0.00 | 0.00 | 83 | 1014.7 |
| 20260506101517 | 17 | 61 | 0.0 | 0.0 | 0.00 | 0.00 | 0.00 | 82 | 1014.7 |
| 20260506101017 | 17 | 61 | 0.0 | 0.0 | 0.00 | 0.00 | 0.00 | 82 | 1014.7 |
| 20260506100516 | 17 | 68 | 0.0 | 1.6 | 0.00 | 0.00 | 0.00 | 82 | 1014.7 |
| 20260506100016 | 17 | 61 | 0.0 | 0.0 | 0.00 | 0.00 | 0.00 | 82 | 1014.7 |
| 20260506095516 | 17 | 68 | 0.0 | 1.6 | 0.00 | 0.00 | 0.00 | 82 | 1014.6 |
| 20260506095016 | 17 | 61 | 0.0 | 0.0 | 0.00 | 0.00 | 0.00 | 81 | 1014.7 |
| 20260506094536 | 17 | 68 | 0.0 | 1.6 | 0.00 | 0.00 | 0.00 | 81 | 1014.7 |
| 20260506094036 | 17 | 68 | 0.0 | 1.6 | 0.00 | 0.00 | 0.00 | 80 | 1014.7 |
| 20260506093517 | 17 | 61 | 0.0 | 0.0 | 0.00 | 0.00 | 0.00 | 80 | 1014.7 |
| 20260506093036 | 18 | 68 | 0.0 | 3.2 | 0.00 | 0.00 | 0.00 | 80 | 1014.8 |
| 20260506092516 | 18 | 71 | 0.0 | 0.0 | 0.00 | 0.00 | 0.00 | 80 | 1014.6 |
| 20260506092016 | 18 | 68 | 0.0 | 3.2 | 0.00 | 0.00 | 0.00 | 80 | 1014.7 |
| 20260506091516 | 18 | 71 | 0.0 | 0.0 | 0.00 | 0.00 | 0.00 | 80 | 1014.6 |
| 20260506091037 | 18 | 68 | 0.0 | 3.2 | 0.00 | 0.00 | 0.00 | 80 | 1014.5 |
| 20260506090516 | 18 | 90 | 0.0 | 1.6 | 0.00 | 0.00 | 0.00 | 79 | 1014.6 |
| 20260506090016 | 18 | 90 | 0.0 | 3.2 | 0.00 | 0.00 | 0.00 | 79 | 1014.7 |
| 20260506085516 | 18 | 113 | 0.0 | 1.6 | 0.00 | 0.00 | 0.00 | 79 | 1014.6 |
| 20260506085016 | 18 | 108 | 0.0 | 0.0 | 0.00 | 0.00 | 0.00 | 79 | 1014.9 |
| 20260506084516 | 18 | 108 | 0.0 | 0.0 | 0.00 | 0.00 | 0.00 | 79 | 1014.9 |
| 20260506084016 | 18 | 113 | 0.0 | 1.6 | 0.00 | 0.00 | 0.00 | 79 | 1015.0 |
| 20260506083516 | 18 | 108 | 0.0 | 0.0 | 0.00 | 0.00 | 0.00 | 79 | 1015.1 |
| 20260506083016 | 18 | 113 | 0.0 | 1.6 | 0.00 | 0.00 | 0.00 | 79 | 1015.2 |
| 20260506082516 | 18 | 108 | 0.0 | 0.0 | 0.00 | 0.00 | 0.00 | 79 | 1015.2 |
| 20260506082036 | 18 | 108 | 0.0 | 0.0 | 0.00 | 0.00 | 0.00 | 79 | 1015.2 |
| 20260506081516 | 18 | 113 | 0.0 | 3.2 | 0.00 | 0.00 | 0.00 | 79 | 1015.2 |
| 20260506081016 | 18 | 113 | 0.0 | 1.6 | 0.00 | 0.00 | 0.00 | 78 | 1015.2 |
| 20260506080516 | 18 | 123 | 0.0 | 0.0 | 0.00 | 0.00 | 0.00 | 79 | 1015.2 |
| 20260506073516 | 18 | 123 | 0.0 | 0.0 | 0.00 | 0.00 | 0.00 | 76 | 1015.1 |
| 20260506073016 | 18 | 123 | 0.0 | 0.0 | 0.00 | 0.00 | 0.00 | 76 | 1015.2 |
| 20260506072516 | 18 | 123 | 0.0 | 0.0 | 0.00 | 0.00 | 0.00 | 75 | 1015.1 |
| 20260506072016 | 18 | 123 | 0.0 | 0.0 | 0.00 | 0.00 | 0.00 | 75 | 1015.1 |
| 20260506071516 | 18 | 123 | 0.0 | 0.0 | 0.00 | 0.00 | 0.00 | 74 | 1015.2 |
| 20260506071016 | 18 | 123 | 0.0 | 0.0 | 0.00 | 0.00 | 0.00 | 74 | 1015.1 |
| 20260506070516 | 18 | 123 | 0.0 | 0.0 | 0.00 | 0.00 | 0.00 | 73 | 1015.2 |
| 20260506062516 | 19 | 66 | 0.0 | 0.0 | 0.00 | 0.00 | 0.00 | 70 | 1014.8 |
| 20260506062016 | 19 | 68 | 0.0 | 1.6 | 0.00 | 0.00 | 0.00 | 69 | 1014.8 |
| 20260506061516 | 19 | 68 | 0.0 | 1.6 | 0.00 | 0.00 | 0.00 | 69 | 1014.9 |
| 20260506061016 | 19 | 68 | 0.0 | 1.6 | 0.00 | 0.00 | 0.00 | 67 | 1014.8 |
| 20260506060516 | 19 | 68 | 0.0 | 1.6 | 0.00 | 0.00 | 0.00 | 66 | 1014.8 |
| 20260506051015 | 19 | 0 | 0.0 | 1.6 | 0.00 | 0.00 | 0.00 | 61 | 1015.1 |
| 20260506050516 | 19 | 23 | 0.0 | 3.2 | 0.00 | 0.00 | 0.00 | 61 | 1015.0 |
| 20260506045017 | 19 | 0 | 0.0 | 3.2 | 0.00 | 0.00 | 0.00 | 62 | 1014.8 |
| 20260506044517 | 19 | 0 | 0.0 | 1.6 | 0.00 | 0.00 | 0.00 | 63 | 1015.0 |
| 20260506044017 | 19 | 5 | 0.0 | 0.0 | 0.00 | 0.00 | 0.00 | 63 | 1015.1 |
| 20260506043518 | 19 | 5 | 0.0 | 0.0 | 0.00 | 0.00 | 0.00 | 62 | 1015.2 |
| 20260506043037 | 19 | 5 | 0.0 | 0.0 | 0.00 | 0.00 | 0.00 | 61 | 1015.3 |
| 20260506042537 | 19 | 0 | 0.0 | 1.6 | 0.00 | 0.00 | 0.00 | 62 | 1015.2 |
| 20260506042016 | 19 | 0 | 0.0 | 1.6 | 0.00 | 0.00 | 0.00 | 62 | 1015.1 |
| 20260506041517 | 19 | 0 | 0.0 | 1.6 | 0.00 | 0.00 | 0.00 | 61 | 1015.2 |
| 20260506041016 | 19 | 0 | 0.0 | 1.6 | 0.00 | 0.00 | 0.00 | 62 | 1015.3 |
| 20260506040517 | 20 | 5 | 0.0 | 0.0 | 0.00 | 0.00 | 0.00 | 60 | 1015.3 |
| 20260506040016 | 20 | 0 | 0.0 | 1.6 | 0.00 | 0.00 | 0.00 | 60 | 1015.2 |
| 20260506035517 | 20 | 0 | 0.0 | 1.6 | 0.00 | 0.00 | 0.00 | 58 | 1015.0 |
| 20260506035017 | 20 | 5 | 0.0 | 0.0 | 0.00 | 0.00 | 0.00 | 58 | 1015.3 |
| 20260506034537 | 20 | 0 | 0.0 | 3.2 | 0.00 | 0.00 | 0.00 | 58 | 1015.1 |
| 20260506034017 | 20 | 0 | 0.0 | 1.6 | 0.00 | 0.00 | 0.00 | 57 | 1014.9 |
| 20260506033537 | 20 | 0 | 0.0 | 1.6 | 0.00 | 0.00 | 0.00 | 58 | 1015.1 |
| 20260506033017 | 20 | 0 | 0.0 | 1.6 | 0.00 | 0.00 | 0.00 | 57 | 1015.0 |
| 20260506032517 | 20 | 0 | 0.0 | 1.6 | 0.00 | 0.00 | 0.00 | 56 | 1015.1 |
| 20260506032017 | 20 | 293 | 0.0 | 0.0 | 0.00 | 0.00 | 0.00 | 56 | 1015.1 |
| 20260506031517 | 20 | 293 | 0.0 | 0.0 | 0.00 | 0.00 | 0.00 | 55 | 1015.1 |
| 20260506031017 | 20 | 293 | 0.0 | 0.0 | 0.00 | 0.00 | 0.00 | 53 | 1015.1 |
| 20260506030542 | 20 | 293 | 0.0 | 0.0 | 0.00 | 0.00 | 0.00 | 53 | 1015.2 |
| 20260506030017 | 20 | 293 | 0.0 | 1.6 | 0.00 | 0.00 | 0.00 | 54 | 1015.3 |
| 20260506025537 | 20 | 272 | 0.0 | 0.0 | 0.00 | 0.00 | 0.00 | 53 | 1015.5 |
| 20260506025016 | 21 | 272 | 0.0 | 0.0 | 0.00 | 0.00 | 0.00 | 52 | 1015.5 |
| 20260506024517 | 21 | 270 | 0.0 | 1.6 | 0.00 | 0.00 | 0.00 | 52 | 1015.5 |
| 20260506024017 | 21 | 272 | 0.0 | 0.0 | 0.00 | 0.00 | 0.00 | 51 | 1015.5 |
| 20260506023517 | 21 | 270 | 0.0 | 1.6 | 0.00 | 0.00 | 0.00 | 50 | 1015.4 |
| 20260506023016 | 21 | 272 | 0.0 | 0.0 | 0.00 | 0.00 | 0.00 | 51 | 1015.3 |
| 20260506022518 | 21 | 270 | 0.0 | 1.6 | 0.00 | 0.00 | 0.00 | 52 | 1015.2 |
| 20260506022017 | 21 | 272 | 0.0 | 0.0 | 0.00 | 0.00 | 0.00 | 51 | 1015.3 |
| 20260506021536 | 21 | 272 | 0.0 | 0.0 | 0.00 | 0.00 | 0.00 | 49 | 1015.3 |
| 20260506021019 | 21 | 272 | 0.0 | 0.0 | 0.00 | 0.00 | 0.00 | 48 | 1015.3 |
| 20260506020537 | 21 | 272 | 0.0 | 0.0 | 0.00 | 0.00 | 0.00 | 48 | 1015.2 |
| 20260506020017 | 21 | 272 | 0.0 | 0.0 | 0.00 | 0.00 | 0.00 | 47 | 1015.1 |
| 20260506015557 | 21 | 272 | 0.0 | 0.0 | 0.00 | 0.00 | 0.00 | 47 | 1015.1 |
| 20260506015017 | 21 | 272 | 0.0 | 0.0 | 0.00 | 0.00 | 0.00 | 47 | 1015.1 |
| 20260506014537 | 22 | 270 | 0.0 | 1.6 | 0.00 | 0.00 | 0.00 | 46 | 1015.0 |
| 20260506014016 | 22 | 272 | 0.0 | 0.0 | 0.00 | 0.00 | 0.00 | 45 | 1015.0 |
| 20260506013516 | 22 | 272 | 0.0 | 0.0 | 0.00 | 0.00 | 0.00 | 45 | 1014.9 |
| 20260506013017 | 22 | 272 | 0.0 | 0.0 | 0.00 | 0.00 | 0.00 | 45 | 1014.9 |
| 20260506012516 | 22 | 272 | 0.0 | 0.0 | 0.00 | 0.00 | 0.00 | 47 | 1014.8 |
| 20260506012016 | 22 | 272 | 0.0 | 0.0 | 0.00 | 0.00 | 0.00 | 44 | 1014.9 |
| 20260506011516 | 22 | 272 | 0.0 | 0.0 | 0.00 | 0.00 | 0.00 | 46 | 1014.8 |
| 20260506011017 | 23 | 272 | 0.0 | 0.0 | 0.00 | 0.00 | 0.00 | 43 | 1015.0 |
| 20260506010601 | 23 | 272 | 0.0 | 0.0 | 0.00 | 0.00 | 0.00 | 43 | 1014.9 |
| 20260506010016 | 23 | 272 | 0.0 | 0.0 | 0.00 | 0.00 | 0.00 | 44 | 1014.9 |
| 20260506005516 | 23 | 272 | 0.0 | 0.0 | 0.00 | 0.00 | 0.00 | 43 | 1014.9 |
| 20260506005016 | 23 | 272 | 0.0 | 0.0 | 0.00 | 0.00 | 0.00 | 42 | 1014.8 |
| 20260506004519 | 24 | 272 | 0.0 | 0.0 | 0.00 | 0.00 | 0.00 | 42 | 1014.7 |
| 20260506004036 | 25 | 272 | 0.0 | 0.0 | 0.00 | 0.00 | 0.00 | 43 | 1014.7 |
| 20260506003516 | 25 | 270 | 0.0 | 1.6 | 0.00 | 0.00 | 0.00 | 42 | 1014.7 |
| 20260506003016 | 25 | 270 | 0.0 | 1.6 | 0.00 | 0.00 | 0.00 | 42 | 1014.7 |
| 20260506002516 | 25 | 248 | 0.0 | 3.2 | 0.00 | 0.00 | 0.00 | 40 | 1014.6 |
| 20260506002016 | 25 | 248 | 0.0 | 1.6 | 0.00 | 0.00 | 0.00 | 40 | 1014.6 |
| 20260506001516 | 26 | 248 | 0.0 | 3.2 | 0.00 | 0.00 | 0.00 | 40 | 1014.6 |
| 20260506001036 | 26 | 248 | 0.0 | 1.6 | 0.00 | 0.00 | 0.00 | 39 | 1014.6 |
| 20260506000516 | 26 | 248 | 0.0 | 3.2 | 0.00 | 0.00 | 0.00 | 39 | 1014.6 |
| 20260506000017 | 27 | 248 | 1.6 | 4.8 | 0.00 | 0.00 | 0.00 | 39 | 1014.5 |
| 20260505235516 | 27 | 225 | 0.0 | 3.2 | 0.00 | 0.00 | 0.00 | 39 | 1014.4 |
| 20260505235036 | 27 | 225 | 1.6 | 4.8 | 0.00 | 0.00 | 0.00 | 40 | 1014.3 |
| 20260505234537 | 27 | 203 | 0.0 | 3.2 | 0.00 | 0.00 | 0.00 | 39 | 1014.2 |
| 20260505234016 | 27 | 203 | 0.0 | 1.6 | 0.00 | 0.00 | 0.00 | 40 | 1014.3 |
| 20260505233516 | 27 | 270 | 1.6 | 4.8 | 0.00 | 0.00 | 0.00 | 40 | 1014.1 |
| 20260505233038 | 27 | 203 | 0.0 | 3.2 | 0.00 | 0.00 | 0.00 | 40 | 1014.0 |
| 20260505232516 | 28 | 203 | 0.0 | 3.2 | 0.00 | 0.00 | 0.00 | 39 | 1014.0 |
| 20260505232016 | 28 | 203 | 1.6 | 4.8 | 0.00 | 0.00 | 0.00 | 38 | 1014.0 |
| 20260505231516 | 28 | 203 | 0.0 | 3.2 | 0.00 | 0.00 | 0.00 | 38 | 1014.0 |
| 20260505231016 | 28 | 248 | 0.0 | 3.2 | 0.00 | 0.00 | 0.00 | 38 | 1014.0 |
| 20260505230516 | 28 | 203 | 0.0 | 4.8 | 0.00 | 0.00 | 0.00 | 38 | 1014.0 |
| 20260505230016 | 28 | 203 | 1.6 | 3.2 | 0.00 | 0.00 | 0.00 | 37 | 1014.0 |
| 20260505225537 | 28 | 180 | 1.6 | 3.2 | 0.00 | 0.00 | 0.00 | 37 | 1014.0 |
| 20260505225016 | 28 | 203 | 1.6 | 4.8 | 0.00 | 0.00 | 0.00 | 38 | 1014.0 |
| 20260505224516 | 28 | 180 | 0.0 | 3.2 | 0.00 | 0.00 | 0.00 | 38 | 1013.9 |
| 20260505224016 | 28 | 203 | 1.6 | 3.2 | 0.00 | 0.00 | 0.00 | 38 | 1013.9 |
| 20260505223516 | 28 | 203 | 1.6 | 3.2 | 0.00 | 0.00 | 0.00 | 38 | 1013.9 |
| 20260505223016 | 28 | 180 | 1.6 | 3.2 | 0.00 | 0.00 | 0.00 | 37 | 1014.0 |
| 20260505222516 | 28 | 45 | 0.0 | 3.2 | 0.00 | 0.00 | 0.00 | 40 | 1014.0 |
| 20260505222036 | 28 | 203 | 1.6 | 4.8 | 0.00 | 0.00 | 0.00 | 38 | 1013.9 |
| 20260505221516 | 28 | 203 | 0.0 | 3.2 | 0.00 | 0.00 | 0.00 | 38 | 1014.0 |
| 20260505221018 | 28 | 180 | 0.0 | 1.6 | 0.00 | 0.00 | 0.00 | 40 | 1013.9 |
| 20260505220556 | 28 | 203 | 0.0 | 3.2 | 0.00 | 0.00 | 0.00 | 40 | 1014.0 |
| 20260505220016 | 28 | 248 | 1.6 | 4.8 | 0.00 | 0.00 | 0.00 | 40 | 1014.0 |
| 20260505215516 | 28 | 225 | 1.6 | 4.8 | 0.00 | 0.00 | 0.00 | 37 | 1014.0 |
| 20260505215016 | 28 | 203 | 1.6 | 4.8 | 0.00 | 0.00 | 0.00 | 38 | 1014.2 |
| 20260505214516 | 28 | 203 | 1.6 | 11.3 | 0.00 | 0.00 | 0.00 | 38 | 1014.1 |
| 20260505214016 | 28 | 203 | 1.6 | 4.8 | 0.00 | 0.00 | 0.00 | 40 | 1014.2 |
| 20260505213516 | 28 | 203 | 1.6 | 8.0 | 0.00 | 0.00 | 0.00 | 38 | 1014.4 |
| 20260505213016 | 28 | 203 | 1.6 | 4.8 | 0.00 | 0.00 | 0.00 | 39 | 1014.4 |
| 20260505212516 | 28 | 203 | 1.6 | 4.8 | 0.00 | 0.00 | 0.00 | 39 | 1014.4 |
| 20260505212016 | 28 | 225 | 1.6 | 4.8 | 0.00 | 0.00 | 0.00 | 39 | 1014.4 |
| 20260505211516 | 28 | 135 | 1.6 | 4.8 | 0.00 | 0.00 | 0.00 | 41 | 1014.5 |
| 20260505211016 | 28 | 113 | 1.6 | 11.3 | 0.00 | 0.00 | 0.00 | 38 | 1014.4 |
| 20260505210516 | 28 | 203 | 0.0 | 4.8 | 0.00 | 0.00 | 0.00 | 38 | 1014.5 |
| 20260505210015 | 28 | 225 | 1.6 | 6.4 | 0.00 | 0.00 | 0.00 | 39 | 1014.5 |
| 20260505205516 | 28 | 203 | 1.6 | 6.4 | 0.00 | 0.00 | 0.00 | 37 | 1014.5 |
| 20260505205016 | 28 | 203 | 1.6 | 6.4 | 0.00 | 0.00 | 0.00 | 38 | 1014.4 |
| 20260505204516 | 28 | 248 | 1.6 | 6.4 | 0.00 | 0.00 | 0.00 | 40 | 1014.5 |
| 20260505204016 | 28 | 90 | 1.6 | 14.5 | 0.00 | 0.00 | 0.00 | 38 | 1014.3 |
| 20260505203515 | 28 | 113 | 1.6 | 8.0 | 0.00 | 0.00 | 0.00 | 39 | 1014.5 |
| 20260505203016 | 28 | 203 | 3.2 | 17.7 | 0.00 | 0.00 | 0.00 | 38 | 1014.6 |
| 20260505202516 | 28 | 113 | 1.6 | 8.0 | 0.00 | 0.00 | 0.00 | 40 | 1014.7 |
| 20260505202018 | 28 | 248 | 0.0 | 3.2 | 0.00 | 0.00 | 0.00 | 39 | 1014.8 |
| 20260505201515 | 28 | 158 | 1.6 | 4.8 | 0.00 | 0.00 | 0.00 | 38 | 1014.8 |
| 20260505201016 | 28 | 113 | 0.0 | 3.2 | 0.00 | 0.00 | 0.00 | 41 | 1014.8 |
| 20260505200515 | 27 | 225 | 1.6 | 3.2 | 0.00 | 0.00 | 0.00 | 41 | 1014.9 |
| 20260505200018 | 27 | 248 | 1.6 | 11.3 | 0.00 | 0.00 | 0.00 | 41 | 1014.9 |
| 20260505195538 | 27 | 203 | 1.6 | 6.4 | 0.00 | 0.00 | 0.00 | 40 | 1015.0 |
| 20260505195018 | 27 | 225 | 1.6 | 11.3 | 0.00 | 0.00 | 0.00 | 42 | 1014.9 |
| 20260505194536 | 27 | 203 | 1.6 | 4.8 | 0.00 | 0.00 | 0.00 | 41 | 1015.1 |
| 20260505194017 | 27 | 68 | 1.6 | 9.7 | 0.00 | 0.00 | 0.00 | 43 | 1015.2 |
| 20260505193517 | 27 | 135 | 1.6 | 4.8 | 0.00 | 0.00 | 0.00 | 43 | 1015.4 |
| 20260505193017 | 27 | 90 | 3.2 | 22.5 | 0.00 | 0.00 | 0.00 | 41 | 1015.3 |
| 20260505192518 | 27 | 203 | 1.6 | 3.2 | 0.00 | 0.00 | 0.00 | 39 | 1015.4 |
| 20260505192058 | 27 | 225 | 0.0 | 3.2 | 0.00 | 0.00 | 0.00 | 40 | 1015.4 |
| 20260505191537 | 27 | 225 | 1.6 | 3.2 | 0.00 | 0.00 | 0.00 | 39 | 1015.6 |
| 20260505191038 | 27 | 113 | 1.6 | 8.0 | 0.00 | 0.00 | 0.00 | 41 | 1015.8 |
| 20260505190517 | 27 | 203 | 1.6 | 4.8 | 0.00 | 0.00 | 0.00 | 43 | 1015.8 |
| 20260505190037 | 27 | 203 | 1.6 | 8.0 | 0.00 | 0.00 | 0.00 | 42 | 1015.8 |
| 20260505185517 | 27 | 203 | 1.6 | 4.8 | 0.00 | 0.00 | 0.00 | 42 | 1015.9 |
| 20260505185038 | 27 | 180 | 1.6 | 4.8 | 0.00 | 0.00 | 0.00 | 42 | 1015.9 |
| 20260505184517 | 27 | 225 | 1.6 | 4.8 | 0.00 | 0.00 | 0.00 | 44 | 1016.1 |
| 20260505184057 | 27 | 225 | 1.6 | 4.8 | 0.00 | 0.00 | 0.00 | 44 | 1016.3 |
| 20260505183517 | 27 | 203 | 1.6 | 12.9 | 0.00 | 0.00 | 0.00 | 43 | 1016.4 |
| 20260505183019 | 26 | 225 | 1.6 | 3.2 | 0.00 | 0.00 | 0.00 | 44 | 1016.4 |
| 20260505182518 | 26 | 203 | 1.6 | 4.8 | 0.00 | 0.00 | 0.00 | 44 | 1016.5 |
| 20260505182017 | 26 | 225 | 3.2 | 9.7 | 0.00 | 0.00 | 0.00 | 47 | 1016.5 |
| 20260505181537 | 26 | 113 | 3.2 | 12.9 | 0.00 | 0.00 | 0.00 | 46 | 1016.4 |
| 20260505181017 | 26 | 113 | 0.0 | 4.8 | 0.00 | 0.00 | 0.00 | 46 | 1016.6 |
| 20260505180517 | 26 | 113 | 0.0 | 3.2 | 0.00 | 0.00 | 0.00 | 47 | 1016.6 |
| 20260505180017 | 26 | 225 | 1.6 | 8.0 | 0.00 | 0.00 | 0.00 | 48 | 1016.6 |
| 20260505175517 | 26 | 113 | 1.6 | 4.8 | 0.00 | 0.00 | 0.00 | 48 | 1016.7 |
| 20260505175102 | 25 | 203 | 1.6 | 4.8 | 0.00 | 0.00 | 0.00 | 46 | 1016.8 |
| 20260505174518 | 25 | 180 | 0.0 | 3.2 | 0.00 | 0.00 | 0.00 | 49 | 1016.9 |
| 20260505174037 | 25 | 90 | 1.6 | 8.0 | 0.00 | 0.00 | 0.00 | 49 | 1016.8 |
| 20260505173517 | 25 | 203 | 1.6 | 4.8 | 0.00 | 0.00 | 0.00 | 49 | 1016.8 |
| 20260505173017 | 25 | 203 | 3.2 | 4.8 | 0.00 | 0.00 | 0.00 | 50 | 1016.9 |
| 20260505172537 | 25 | 203 | 1.6 | 8.0 | 0.00 | 0.00 | 0.00 | 49 | 1016.8 |
| 20260505172038 | 25 | 225 | 1.6 | 4.8 | 0.00 | 0.00 | 0.00 | 47 | 1016.9 |
| 20260505171518 | 26 | 180 | 1.6 | 11.3 | 0.00 | 0.00 | 0.00 | 48 | 1017.0 |
| 20260505171017 | 25 | 158 | 1.6 | 11.3 | 0.00 | 0.00 | 0.00 | 51 | 1017.1 |
| 20260505170517 | 25 | 203 | 1.6 | 3.2 | 0.00 | 0.00 | 0.00 | 47 | 1017.0 |
| 20260505170017 | 25 | 90 | 1.6 | 4.8 | 0.00 | 0.00 | 0.00 | 51 | 1017.0 |
| 20260505165517 | 25 | 113 | 1.6 | 4.8 | 0.00 | 0.00 | 0.00 | 54 | 1017.0 |
| 20260505165017 | 25 | 90 | 1.6 | 8.0 | 0.00 | 0.00 | 0.00 | 54 | 1017.1 |
| 20260505164537 | 25 | 180 | 1.6 | 8.0 | 0.00 | 0.00 | 0.00 | 53 | 1017.0 |
| 20260505164037 | 25 | 225 | 1.6 | 4.8 | 0.00 | 0.00 | 0.00 | 52 | 1017.2 |
| 20260505163517 | 25 | 203 | 1.6 | 4.8 | 0.00 | 0.00 | 0.00 | 50 | 1017.3 |
| 20260505163017 | 25 | 225 | 1.6 | 4.8 | 0.00 | 0.00 | 0.00 | 50 | 1017.4 |
| 20260505162517 | 25 | 113 | 1.6 | 6.4 | 0.00 | 0.00 | 0.00 | 51 | 1017.5 |
| 20260505162017 | 25 | 90 | 1.6 | 4.8 | 0.00 | 0.00 | 0.00 | 54 | 1017.6 |
| 20260505161517 | 25 | 90 | 0.0 | 1.6 | 0.00 | 0.00 | 0.00 | 52 | 1017.7 |
| 20260505161017 | 24 | 180 | 0.0 | 3.2 | 0.00 | 0.00 | 0.00 | 52 | 1017.8 |
| 20260505160518 | 25 | 68 | 0.0 | 1.6 | 0.00 | 0.00 | 0.00 | 50 | 1017.8 |
| 20260505153017 | 24 | 315 | 1.6 | 4.8 | 0.00 | 0.00 | 0.00 | 51 | 1017.9 |
| 20260505152519 | 24 | 90 | 1.6 | 3.2 | 0.00 | 0.00 | 0.00 | 52 | 1018.0 |
| 20260505152037 | 24 | 90 | 1.6 | 6.4 | 0.00 | 0.00 | 0.00 | 52 | 1018.0 |
| 20260505151517 | 23 | 23 | 1.6 | 6.4 | 0.00 | 0.00 | 0.00 | 53 | 1017.9 |
| 20260505151017 | 23 | 315 | 0.0 | 3.2 | 0.00 | 0.00 | 0.00 | 53 | 1017.8 |
| 20260505150537 | 23 | 45 | 0.0 | 3.2 | 0.00 | 0.00 | 0.00 | 56 | 1017.9 |
| 20260505140516 | 21 | 113 | 0.0 | 3.2 | 0.00 | 0.00 | 0.00 | 67 | 1017.6 |